Location: Fort Wayne
(41.1310°N, 85.1290°W)
Time: 06:27:47
(UTC-04:00)

Daily predictions for brighter satellites

Satellite Brightness Start Highest point End
(mag) Time Altitude Azimuth Time Altitude Azimuth Time Altitude Azimuth
Cosmos 2333 Rocket 3.1 19:53:30 10° SW 19:59:10 57° WNW 20:04:52 10° NNE
Cosmos 2233 Rocket 4.2 19:56:07 10° S 20:02:25 83° W 20:08:48 10° N
Spot 2 Rocket 4.0 19:57:52 10° SE 20:02:29 38° ENE 20:07:07 10° N
NOSS 3-2 (C) 3.8 19:57:17 10° S 20:02:56 44° ESE 20:09:03 10° NE
Cosmos 1076 Rocket 4.2 19:59:32 10° N 20:03:29 34° ENE 20:07:26 10° SE
Cosmos 2056 Rocket 3.6 20:00:18 10° NNW 20:05:45 75° ENE 20:11:10 10° SSE
Helios 1B rocket 3.2 20:02:45 10° NE 20:06:24 30° E 20:10:01 10° SSE
Cosmos-2242 4.1 20:05:07 10° SE 20:08:33 23° E 20:12:00 10° NE
Cosmos 1484 Rocket 3.5 20:06:11 10° S 20:09:56 58° W 20:13:47 10° NNW
Cosmos 1371 Rocket 4.5 20:10:07 10° NNW 20:15:22 67° WSW 20:20:39 10° S
NOAA 12 4.1 20:11:32 10° SSE 20:16:46 78° ENE 20:22:04 10° N
Atlas Centaur 2 4.2 20:11:01 10° WSW 20:18:28 34° SSW 20:25:29 10° SE
Cosmos 1408 Rocket 3.8 20:17:09 10° N 20:21:22 46° ENE 20:25:31 10° SSE
Cosmos 2237 Rocket 3.6 20:19:43 10° SW 20:25:05 42° WNW 20:30:29 10° N
ATLAS CENTAUR R/B 2.5 20:24:26 10° NW 20:28:24 42° WSW 20:32:02 10° S
Cosmos 1766 3.4 20:25:52 10° S 20:29:48 81° W 20:33:49 10° N
Aureole 2 Rocket 3.2 20:25:31 10° SSW 20:29:54 76° WNW 20:34:14 10° NNE
Okean 3 Rocket 4.4 20:27:47 10° NNW 20:32:15 57° W 20:36:41 10° S
Resurs 01 Rocket 1.6 20:28:12 10° SSE 20:32:37 70° ENE 20:37:03 10° N
ATLAS 5 CENTAUR R/B 1.9 20:28:09 10° SSW 20:32:47 56° ESE 20:37:47 10° NE
HJ-1C 3.3 20:29:58 10° SSE 20:33:17 73° ENE 20:36:40 10° N
Resurs 1-3 3.7 20:29:56 10° SSE 20:34:13 56° ENE 20:38:31 10° N
USA 215 3.2 20:33:44 10° NE 20:40:18 83° SE 20:46:51 10° SW
SL-16 R/B 2.6 20:38:40 10° SSW 20:44:19 66° WNW 20:50:00 10° NNE
CZ-2D R/B 3.8 20:43:00 24° ESE 20:44:46 37° ENE 20:48:24 10° N
Meteor 1-29 2.8 20:41:20 10° NNE 20:44:52 72° ESE 20:48:20 10° S
Cosmos 192 4.4 20:40:51 10° SSW 20:45:48 81° WNW 20:50:48 10° NNE
Cosmos 1743 Rocket 3.9 20:44:41 10° N 20:48:57 44° ENE 20:51:26 22° SE
Cosmos 1953 2.2 20:46:50 10° S 20:50:48 79° E 20:54:48 10° N
ERS-1 Rocket 4.2 20:54:54 22° ENE 20:55:03 22° ENE 20:58:49 10° NNE
Nadezhda 4 Rocket 4.0 20:50:39 10° N 20:56:53 62° E 21:03:02 10° SSE
Helios 1A 3.3 20:52:49 10° S 20:56:58 69° WSW 21:01:10 10° NNW
BREEZE-M DEB (TANK) 4.2 20:44:22 10° W 20:59:30 61° N 21:02:28 25° ENE
SeaSat 1 2.8 20:55:15 10° NE 20:59:52 39° ESE 21:04:27 10° S
Cosmos 1805 3.4 20:57:48 10° SSW 21:01:43 77° W 21:05:40 10° N
GP-B 3.9 20:57:58 10° NNE 21:01:21 30° ENE 21:01:21 30° ENE
Cosmos 1452 Rocket 3.5 20:57:10 10° NNW 21:02:27 81° WSW 21:07:29 11° SSE
H-2A R/B 2.7 21:01:10 35° SE 21:02:37 60° ENE 21:06:28 10° N
Cosmos 1092 Rocket 4.1 20:56:49 10° N 21:02:51 50° ENE 21:06:37 22° SE
Cosmos 1544 2.9 21:00:52 10° S 21:04:35 76° E 21:08:20 10° N
CZ-4B DEB 2.7 21:06:22 42° S 21:07:22 86° W 21:10:39 10° NNW
ALOS 2.2 21:04:17 12° SSE 21:08:40 90° SW 21:13:21 10° NNW
FENGYUN 3A 3.6 21:06:57 10° SSE 21:12:19 89° W 21:17:45 10° NNW
OAO 3 Rocket 3.8 21:07:56 10° WSW 21:12:24 40° S 21:13:21 36° SSE
Cosmos 724 4.3 21:09:53 10° SSW 21:15:48 89° WNW 21:21:56 10° NNE
NOSS 3-2 (A) 4.3 21:10:03 10° WSW 21:15:59 51° NW 21:22:29 10° NNE
Cosmos 1634 Rocket 4.1 21:11:20 10° SSE 21:17:18 49° E 21:23:15 10° NNE
Cosmos 2026 Rocket 4.4 21:12:49 10° N 21:18:25 37° ENE 21:18:46 36° E
Cosmos 1470 3.6 21:24:31 38° NNE 21:24:31 38° NNE 21:27:03 10° NNE
Cosmos 1420 Rocket 3.9 21:20:13 10° NNW 21:25:32 89° ENE 21:27:35 39° SSE
Cosmos 2369 Rocket 2.4 21:23:05 10° NNW 21:28:32 47° ENE 21:28:55 46° ENE
H-2A R/B 4.4 21:31:47 13° NNE 21:31:47 13° NNE 21:32:37 10° NNE
Cosmos 1603 3.9 21:25:47 10° SSW 21:31:30 72° WNW 21:37:16 10° NNE
Cosmos 1943 Rocket 3.5 21:31:26 10° N 21:35:15 24° NE 21:35:15 24° NE
Cosmos 2195 Rocket 4.4 21:33:50 10° N 21:40:07 64° E 21:41:05 56° ESE
Cosmos 1269 Rocket 4.2 21:35:01 10° SSW 21:40:16 69° WNW 21:45:33 10° NNE
Cosmos 1048 Rocket 4.1 21:39:17 10° SSW 21:44:34 74° WNW 21:49:51 10° NNE
ASTEX 1 4.1 21:39:57 10° N 21:44:43 52° W 21:49:27 10° SSW
SL-8 R/B 4.2 21:46:07 10° SW 21:49:42 51° SW 21:49:42 51° SW
Envisat 3.5 21:53:17 47° NNE 21:53:17 47° NNE 21:57:05 10° N
Cosmos 1674 3.9 21:48:34 10° NNW 21:51:56 42° WNW 21:51:56 42° WNW
CENTAUR R/B 2.3 21:46:53 10° SSW 21:52:51 72° ESE 21:53:12 70° E
Meteor 1-11 4.4 21:50:10 10° N 21:55:14 61° NE 21:55:14 61° NE
Cosmos 2151 4.5 21:58:23 10° N 22:00:38 31° NNW 22:00:38 31° NNW
Cosmos 1627 Rocket 4.4 21:56:25 10° N 22:02:38 88° W 22:03:14 75° S
ATLAS 5 CENTAUR R/B 4.1 22:13:55 10° W 22:17:52 24° NW 22:22:06 10° NNE
USA 215 4.5 22:17:38 13° NE 22:22:54 36° NNW 22:28:44 10° W
ERS-1 Rocket 4.3 22:34:55 36° WNW 22:34:55 36° WNW 22:38:20 10° NNW
SeaSat 1 4.2 22:33:00 10° N 22:37:14 29° NW 22:41:28 10° WSW
Cosmos 2369 Rocket 4.3 23:07:45 10° NW 23:10:43 22° WNW 23:10:43 22° WNW
Cosmos 1943 Rocket 4.3 23:14:39 10° NW 23:16:47 23° NW 23:16:47 23° NW
